DMSP 5D-2 F13 DEB, 40676

Orbit data source: Space-Track

DMSP 5D-2 F13 DEB, 40676 is space debris in SSO originally from a launch on Fri, 24 Mar 1995 UTC launched from the Air Force Western Test Range (AFWTR). Debris objects in space refer to the collection of defunct objects orbiting the Earth. Examples of debris include non-operational satellites, rocket bodies, and fragments generated from explosions, collisions, or faulty payload assembly.

Loading next visibility...
Identifier
40676, 1995-015FQ
Orbit
SSO
Country
Flag of USUS
Related business
Manufacturer
Unknown
Mission
Spacecraft
Bus & Motor
Unknown
Mass
Unknown
Launch date (UTC)
1995-03-24 (31 years ago)
Launch vehicle
Unknown
Launch site
Air Force Western Test Range (AFWTR)
Object type
Payload
Rocket body
Debris
Shape & HBR
Unknown shape, 0.1 m
Radar Cross Section
Small (<0.1 m²)

Expand to show TLE details & history
Last TLE update: 8 hours ago

TLE from 8 hours ago
0 DMSP 5D-2 F13 DEB
1 40676U 95015FQ  25288.84902096  .00006407  00000-0  21241-2 0  9995
2 40676  98.6989 320.4789 0004728  44.9370 315.2199 14.38164720541247
Epoch: 2025-10-15T20:22Z
TLE epoch observation values (Epoch: 2025-10-15T20:22:35.410Z)
Latitude
-0.00001°
Longitude
-9.78584°
Altitude
765.112 km
Speed
7.473 km/s
True Right ascension
21h 21m 54s
True Declination
0° 00' 00"
Sunlit
Object was in full shadow at epoch
Visualization orbit readout
Latitude
Unknown
Longitude
Unknown
Altitude
Unknown
Speed
Unknown
Apparent Right ascension
Unknown
Apparent Declination
Unknown
Sunlit
N/A
Visualization observer readout
Local Sidereal Time
23:09:48
Azimuth
Unknown
Elevation
Unknown
Doppler factor
Unknown
Orbital elements
Apogee altitude
765.078 km
Perigee altitude
758.327 km
Semi-major axis
7,139.839 km
Eccentricity
0.00047
Inclination
98.6989°
RAAN
320.4789°
Arg. of periapsis
44.937°
True anomaly
315.18172°
Mean anomaly
315.2199°
Eccentric anomaly
315.20081°
Mean motion
3.59758 °/min
Orbital period
100.07 mins
BSTAR
0.0021241

Documentation

Showing up to 5 results
|